{"data":{"norad_id":62566,"epoch":"2026-09-21T09:01:04.330848Z","epoch_age_seconds":95680,"freshness":"FRESH","line1":"1 62566U 25006N   26264.37574457 -.00036523  00000+0 -28323-3 0  9991","line2":"2 62566  43.0014  40.8202 0000915 336.6047  23.4779 15.70770367 97370","mean_motion":15.70770367,"eccentricity":9.15e-5,"inclination_deg":43.0014,"raan_deg":40.8202,"arg_perigee_deg":336.6047,"mean_anomaly_deg":23.4779,"bstar":-0.00028323,"rev_number":9737,"period_min":91.674762285607,"perigee_km":356.07785602191,"apogee_km":357.31033011194,"semimajor_km":6734.8310930669,"source":"CELESTRAK","updated_at":"2026-09-22T09:00:49.628361Z"}}